Regional Weather Roundup
Issued by NWS

Home | Current Version | Previous Version | Graphics & Text | Print | Product List | Glossary On
Versions: 1 2 3 4 5 6 7 8 9 10 11 12 13 14 15 16 17 18 19 20 21 22 23 24 25 26 27 28 29 30 31 32 33 34 35 36 37 38 39 40 41 42 43 44 45 46 47 48 49 50
000
ASUS43 KDMX 291203
RWRIA

WEATHER ROUNDUP FOR IOWA
NATIONAL WEATHER SERVICE DES MOINES IA
700 AM CDT MON AUG 29 2016

NOTE: "FAIR" INDICATES FEW OR NO CLOUDS BELOW 12,000 FEET WITH NO
SIGNIFICANT WEATHER AND/OR OBSTRUCTIONS TO VISIBILITY.

* - THESE STATIONS ARE NOT NWS STATIONS...THUS NOT UNDER NWS
QUALITY CONTROL.  THEY ALSO DO NOT REPORT WEATHER SUCH
AS PRECIPITATION OR FOG.

IAZ001>003-012>014-020>022-031>034-043>046-291300-
   NORTHWEST IOWA

CITY           SKY/WX    TMP DP  RH WIND       PRES   REMARKS
CARROLL *      CLOUDY    64  64 100 CALM      30.16R
CHEROKEE *     PTCLDY    64  64 100 CALM      30.16R
DENISON *      PTCLDY    64  64 100 E3        30.15R
LE MARS *      CLOUDY    68  64  88 CALM      30.15R
ORANGE CITY *  MOCLDY    66  64  94 S5        30.15R
SHELDON *      CLOUDY    64  64 100 SE3       30.14R
SIOUX CITY     CLOUDY    67  64  90 SE7       30.14R
6HR MIN TEMP:  67; 6HR MAX TEMP:  69;

SPENCER        PTCLDY    63  61  93 SE5       30.17R
6HR MIN TEMP:  61; 6HR MAX TEMP:  66;

STORM LAKE *   PTCLDY    64  63  94 SE5       30.18R FOG
$$

IAZ055>058-069>071-079>083-090>094-291300-
   SOUTHWEST IOWA

CITY           SKY/WX    TMP DP  RH WIND       PRES   REMARKS
ATLANTIC *     MOCLDY    66  66 100 CALM      30.17R
AUDUBON *      PTCLDY    64  61  88 CALM      30.18R
CLARINDA *       N/A     66  66 100 MISG      30.18R FOG
COUNCIL BLFS * CLOUDY    68  68 100 SE7       30.17R
CRESTON *      CLOUDY    68  68 100 CALM      30.18S FOG
HARLAN  *      PTCLDY    64  64 100 CALM      30.21R FOG
LAMONI         CLOUDY    68  68 100 S5        30.16S
6HR MIN TEMP:  68; 6HR MAX TEMP:  71;

RED OAK *      DRIZZLE   70  68  94 W5        30.17R
SHENANDOAH *   MOCLDY    68 -38   1 CALM      30.17R HAZE
$$

IAZ047>049-059>061-072>074-084-291300-
   CENTRAL IOWA

CITY           SKY/WX    TMP DP  RH WIND       PRES   REMARKS
AMES           CLOUDY    70  70 100 SE5       30.18R
6HR MIN TEMP:  67; 6HR MAX TEMP:  70; 6HR PCP: TRACE;

ANKENY *         N/A    N/A N/A N/A MISG        N/A
BOONE *        MOCLDY    70  70 100 SE5       30.18R FOG
CHARITON *       N/A     72  70  94 MISG      30.17R FOG
DES MOINES     MOCLDY    72  71  97 SE7       30.17R
6HR MIN TEMP:  72; 6HR MAX TEMP:  74; 6HR PCP: TRACE;

GRINNELL*      CLOUDY    69  67  94 E3        30.20R
KNOXVILLE *    CLOUDY    70  68  94 E6        30.17R FOG
MARSHALLTOWN   CLOUDY    69  69 100 E5        30.18S
6HR MIN TEMP:  69; 6HR MAX TEMP:  71; 6HR PCP: TRACE;

NEWTON *       CLOUDY    70  70 100 E6        30.18R
PERRY *          N/A     68  68  99 SE3       30.17R
$$

IAZ004>006-015-016-023>025-035-036-291300-
   NORTH CENTRAL IOWA

CITY           SKY/WX    TMP DP  RH WIND       PRES   REMARKS
ALGONA *       PTCLDY    64  64 100 S5        30.17S FOG
ESTHERVILLE    PTCLDY    62  62 100 S7        30.15S
6HR MIN TEMP:  61; 6HR MAX TEMP:  67;

FORT DODGE *   CLOUDY    64  63  94 E5        30.19R
MASON CITY     CLOUDY    66  66 100 SE6       30.21R FOG
6HR MIN TEMP:  64; 6HR MAX TEMP:  68;

FOREST CITY *    N/A    N/A N/A N/A MISG        N/A
WEBSTER CITY * CLOUDY    68  68 100 SE6       30.17R FOG
IOWA FALLS *     N/A     68  67  96 SE5       30.21R FOG
$$

IAZ007>011-017>019-026>030-037>042-050>054-066-291300-
   NORTHEAST IOWA

CITY           SKY/WX    TMP DP  RH WIND       PRES   REMARKS
CEDAR RAPIDS   CLOUDY    68  68 100 E7        30.20R
6HR MIN TEMP:  67; 6HR MAX TEMP:  68;

CHARLES CITY * PTCLDY    66  66 100 SE6       30.20F FOG
CLINTON *      CLEAR     68  68 100 E6        30.22S FOG
DECORAH *      CLOUDY    66  66 100 SE5       30.21S
DUBUQUE        PTCLDY    67  66  97 CALM      30.23R FOG
6HR MIN TEMP:  65; 6HR MAX TEMP:  70;

MONTICELLO *   CLOUDY    66  66 100 CALM      30.22R FOG
OELWEIN *      CLOUDY    68  66  94 SE5       30.21S
WATERLOO       CLOUDY    68  66  93 SE3       30.19R
6HR MIN TEMP:  65; 6HR MAX TEMP:  69;

$$

IAZ064-065-067-068-078-291300-
   EAST CENTRAL IOWA

CITY           SKY/WX    TMP DP  RH WIND       PRES   REMARKS
DAVENPORT      PTCLDY    68  67  96 E6        30.22R FOG
6HR MIN TEMP:  68; 6HR MAX TEMP:  71;

IOWA CITY      CLOUDY    70  68  93 NE5       30.21R
6HR MIN TEMP:  70; 6HR MAX TEMP:  71;

MT. PLEASANT * CLEAR     69  69 100 E5        30.18S FOG
QUAD CITIES    FOG       70  68  93 E5        30.20R VSB 1/2
6HR MIN TEMP:  69; 6HR MAX TEMP:  72;

$$

IAZ062-063-075>077-085>089-095>099-291300-
   SOUTHEAST IOWA

CITY           SKY/WX    TMP DP  RH WIND       PRES   REMARKS
BURLINGTON     CLEAR     71  70  96 E5        30.18R
6HR MIN TEMP:  71; 6HR MAX TEMP:  73;

FAIRFIELD *    CLEAR     68  68 100 CALM      30.18R FOG
FORT MADISON * CLEAR     68  68 100 CALM      30.19R FOG
KEOKUK *       CLEAR     70  70 100 NE3       30.17R FOG
OSKALOOSA *      N/A     68  67  98 SE3       30.19R FOG
CENTERVILLE *  LGT RAIN  70  70 100 CALM      30.20R
OTTUMWA        CLOUDY    69  68  96 E5        30.18S FOG
6HR MIN TEMP:  68; 6HR MAX TEMP:  69;

WASHINGTON *   CLOUDY    68  68 100 E5        30.20R FOG
$$

ABBREVIATIONS USED IN REMARKS
   TC - TEMPERATURES IN CELSIUS
  WCI - WIND CHILL INDEX
   HX - HEAT INDEX
  VSB - VISIBILITY
$$




USA.gov is the U.S. government's official web portal to all federal, state and local government web resources and services.